TimeCDT,TemperatureF,Dew PointF,Humidity,Sea Level PressureIn,VisibilityMPH,Wind Direction,Wind SpeedMPH,Gust SpeedMPH,PrecipitationIn,Events,Conditions,WindDirDegrees,DateUTC
12:54 AM,63.0,60.1,90,30.14,10.0,Calm,Calm,-,N/A,,Clear,0,2013-08-23 05:54:00
1:54 AM,60.1,57.0,90,30.14,10.0,Calm,Calm,-,N/A,,Clear,0,2013-08-23 06:54:00
2:54 AM,57.0,55.0,93,30.16,5.0,Calm,Calm,-,N/A,,Clear,0,2013-08-23 07:54:00
2:58 AM,57.2,55.4,94,30.17,1.0,Calm,Calm,-,N/A,,Clear,0,2013-08-23 07:58:00
3:06 AM,59.0,55.4,88,30.17,2.0,ENE,6.9,-,N/A,,Clear,70,2013-08-23 08:06:00
3:13 AM,60.8,55.4,82,30.17,10.0,ENE,6.9,-,N/A,,Clear,70,2013-08-23 08:13:00
3:54 AM,59.0,54.0,83,30.16,10.0,East,3.5,-,N/A,,Partly Cloudy,90,2013-08-23 08:54:00
4:08 AM,59.0,53.6,82,30.17,10.0,East,4.6,-,N/A,,Mostly Cloudy,90,2013-08-23 09:08:00
4:54 AM,59.0,54.0,83,30.17,10.0,East,4.6,-,N/A,,Mostly Cloudy,100,2013-08-23 09:54:00
5:33 AM,59.0,53.6,82,30.19,10.0,East,5.8,-,N/A,,Scattered Clouds,90,2013-08-23 10:33:00
5:41 AM,59.0,53.6,82,30.19,10.0,East,6.9,-,N/A,,Mostly Cloudy,100,2013-08-23 10:41:00
5:54 AM,57.9,54.0,87,30.19,10.0,East,5.8,-,N/A,,Partly Cloudy,100,2013-08-23 10:54:00
6:54 AM,57.9,53.1,84,30.20,10.0,ESE,4.6,-,N/A,,Clear,110,2013-08-23 11:54:00
7:54 AM,64.0,54.0,70,30.21,10.0,ESE,4.6,-,N/A,,Clear,110,2013-08-23 12:54:00
8:54 AM,70.0,54.0,57,30.21,10.0,Variable,6.9,-,N/A,,Clear,0,2013-08-23 13:54:00
9:54 AM,73.9,52.0,46,30.21,10.0,SSE,8.1,-,N/A,,Clear,160,2013-08-23 14:54:00
10:54 AM,75.9,53.1,45,30.20,10.0,South,5.8,-,N/A,,Clear,170,2013-08-23 15:54:00
11:54 AM,80.1,54.0,40,30.19,10.0,Calm,Calm,-,N/A,,Clear,0,2013-08-23 16:54:00
12:54 PM,80.1,54.0,40,30.18,10.0,SSW,6.9,-,N/A,,Scattered Clouds,210,2013-08-23 17:54:00
1:54 PM,82.0,55.0,39,30.16,10.0,SW,6.9,-,N/A,,Partly Cloudy,220,2013-08-23 18:54:00
2:54 PM,82.9,55.0,38,30.15,10.0,Variable,3.5,-,N/A,,Mostly Cloudy,0,2013-08-23 19:54:00
3:54 PM,84.0,53.1,34,30.14,10.0,SSW,4.6,-,N/A,,Mostly Cloudy,210,2013-08-23 20:54:00
4:54 PM,84.0,54.0,35,30.13,10.0,SSW,8.1,-,N/A,,Clear,210,2013-08-23 21:54:00
5:54 PM,82.9,53.1,36,30.12,10.0,SSW,8.1,-,N/A,,Clear,200,2013-08-23 22:54:00
6:54 PM,80.1,55.0,42,30.13,10.0,SSW,8.1,-,N/A,,Clear,200,2013-08-23 23:54:00
7:54 PM,75.0,57.0,53,30.13,10.0,SSE,4.6,-,N/A,,Clear,160,2013-08-24 00:54:00
8:54 PM,70.0,57.0,63,30.14,10.0,South,4.6,-,0.00,Rain,Light Rain,170,2013-08-24 01:54:00
9:54 PM,69.1,57.9,68,30.15,10.0,SSE,4.6,-,0.00,,Clear,160,2013-08-24 02:54:00
10:54 PM,66.0,57.9,75,30.15,10.0,South,4.6,-,0.00,,Clear,170,2013-08-24 03:54:00
11:54 PM,64.9,57.9,78,30.17,10.0,SE,3.5,-,N/A,,Clear,140,2013-08-24 04:54:00